Location: Radomski Observatory
(40.2854°N, 79.5145°W)
Time: 07:09:26
(UTC-05:00)

Amateur Radio Satellites - All Passes

Search period start: 12 February 2016 06:39
Search period end: 13 February 2016 06:39
Location: Radomski Observatory, 40.2854°N, 79.5145°W

Satellite Date Start Highest point End Downlink Frequencies (MHz)
Time Altitude Azimuth
Cosmos 2504 12 Feb 06:45:16 06:52:15 26° 293° (WNW) 06:59:26 435.465 / 435.565
PRISM 12 Feb 06:51:09 06:54:53 33° 70° (ENE) 06:58:39 437.425
LilacSat-2 12 Feb 06:55:58 06:59:43 64° 284° (WNW) 07:03:28 437.200
BRITE-PL 12 Feb 07:20:54 07:25:33 72° 285° (WNW) 07:29:52 437.365/2234.400
O/OREOS (USA 219) 12 Feb 07:28:45 07:33:08 60° 108° (ESE) 07:37:36 437.305
CUTE-I 12 Feb 07:29:15 07:34:14 40° 291° (WNW) 07:39:12 437.470
HO-68 12 Feb 07:33:33 07:39:11 24° 93° (E) 07:44:47 435.675
DOVE 4 12 Feb 07:42:08 07:46:10 44° 99° (E) 07:50:07 437.250
Cubesat XI-IV 12 Feb 07:44:04 07:48:42 30° 293° (WNW) 07:53:19 437.490
CUTE 1.7 + AOD 2 12 Feb 07:50:09 07:53:31 22° 94° (E) 07:56:54 437.475
SEEDS 12 Feb 07:52:23 07:55:17 18° 93° (E) 07:58:09 437.485
Cosmos 2499 12 Feb 07:56:17 07:59:59 13° 74° (ENE) 08:03:42 435.465 / 435.565
AAUSAT CUBESAT 2 12 Feb 08:00:41 08:02:32 13° 91° (E) 08:04:23 437.432
STRAND 1 12 Feb 08:06:10 08:09:00 15° 269° (W) 08:11:52 437.568
GOMX 1 12 Feb 08:13:57 08:18:00 37° 289° (WNW) 08:21:53 467.674
GONETS M04 12 Feb 08:17:24 08:25:31 47° 88° (E) 08:33:40
CINEMA 3 12 Feb 08:17:43 08:21:34 36° 98° (E) 08:25:27 145.822/145.860
PRISM 12 Feb 08:27:14 08:30:16 19° 266° (W) 08:33:20 437.425
CANX-2 12 Feb 08:34:59 08:39:18 83° 101° (E) 08:43:37 2200.000
ZACube-1 12 Feb 08:51:50 08:54:24 16° 92° (E) 08:56:59 437.345
DELFI C3 12 Feb 08:55:17 08:55:55 10° 90° (E) 08:56:34 145.870
FUNcube-1 12 Feb 08:59:13 09:02:09 18° 93° (E) 09:05:06 145.935
COMPASS 1 12 Feb 09:07:59 09:12:14 85° 283° (WNW) 09:16:27 437.405
O/OREOS (USA 219) 12 Feb 09:10:26 09:12:58 15° 306° (NW) 09:15:31 437.305
ANTELSAT 12 Feb 09:13:46 09:17:26 28° 69° (ENE) 09:21:04 437.575/2403.000
AIST 1 12 Feb 09:15:54 09:16:56 11° 83° (E) 09:17:58
TIGRISAT 12 Feb 09:19:36 09:23:22 31° 70° (ENE) 09:27:07 435.000
HO-68 12 Feb 09:20:14 09:27:20 63° 291° (WNW) 09:34:24 435.675
DOVE 4 12 Feb 09:21:08 09:23:30 15° 295° (WNW) 09:25:50 437.250
CUTE 1.7 + AOD 2 12 Feb 09:25:37 09:29:23 30° 290° (WNW) 09:33:08 437.475
SEEDS 12 Feb 09:27:10 09:31:07 38° 288° (WNW) 09:35:03 437.485
Oscar 11 12 Feb 09:27:17 09:31:32 50° 99° (E) 09:35:46 145.826/435.025
AAUSAT CUBESAT 2 12 Feb 09:34:14 09:38:20 51° 286° (WNW) 09:42:25 437.432
UWE-3 12 Feb 09:38:38 09:42:52 77° 104° (ESE) 09:47:11 435.000/436.395/437.385
Cosmos 2499 12 Feb 09:42:47 09:51:28 73° 93° (E) 10:00:18 435.465 / 435.565
CUBEBUG 2 12 Feb 09:43:33 09:47:44 66° 284° (WNW) 09:51:59 437.445
POLYITAN 1 12 Feb 09:47:39 09:50:17 16° 65° (ENE) 09:52:55 437.675
QB50P2 12 Feb 09:48:02 09:50:47 17° 66° (ENE) 09:53:31 145.880/145.840
AO-85 12 Feb 09:53:35 09:58:54 75° 119° (ESE) 10:04:25 145.980
CINEMA 3 12 Feb 09:55:39 09:58:28 18° 293° (WNW) 10:01:18 145.822/145.860
PCSat 12 Feb 09:57:58 10:03:03 43° 112° (ESE) 10:08:11 145.827
UNISAT 6 12 Feb 10:04:38 10:08:57 77° 258° (WSW) 10:13:14 437.425
RS-15 12 Feb 10:05:16 10:14:39 34° 104° (ESE) 10:24:24 29.354- 29.394
GONETS M04 12 Feb 10:14:33 10:22:25 38° 288° (WNW) 10:30:24
POPSAT HIP 1 12 Feb 10:15:54 10:19:39 31° 70° (ENE) 10:23:24 437.405
NANOSAT C BR1 12 Feb 10:18:50 10:22:38 33° 70° (ENE) 10:26:25 145.865
DUCHIFAT 1 12 Feb 10:19:06 10:22:51 32° 70° (ENE) 10:26:35 145.980
HUMSAT D 12 Feb 10:22:32 10:26:35 46° 99° (E) 10:30:40 437.325/437.525
ZACube-1 12 Feb 10:26:52 10:30:53 43° 287° (WNW) 10:34:58 437.345
DELFI C3 12 Feb 10:27:11 10:31:11 58° 285° (WNW) 10:35:09 145.870
QB50P1 12 Feb 10:27:58 10:31:59 44° 72° (ENE) 10:36:00 145.935-145.965
FUNcube-1 12 Feb 10:34:36 10:38:31 37° 288° (WNW) 10:42:28 145.935
VELOX 1 12 Feb 10:48:23 10:51:09 16° 93° (E) 10:53:53 145.980
AIST 1 12 Feb 10:49:35 10:53:56 62° 280° (W) 10:58:19
ANTELSAT 12 Feb 10:50:39 10:54:08 24° 265° (W) 10:57:36 437.575/2403.000
TIGRISAT 12 Feb 10:56:47 11:00:06 22° 265° (W) 11:03:24 435.000
UKube-1 12 Feb 11:02:57 11:06:13 21° 95° (E) 11:09:28 .
Oscar 11 12 Feb 11:04:47 11:07:15 15° 295° (WNW) 11:09:42 145.826/435.025
AISAT 12 Feb 11:04:49 11:08:30 26° 95° (E) 11:12:09 437.250
BUGSAT 1 12 Feb 11:08:42 11:12:51 62° 74° (ENE) 11:16:57 437.445
HO-68 12 Feb 11:11:06 11:13:38 12° 310° (NW) 11:16:09 435.675
CUBEBUG 1 12 Feb 11:16:33 11:20:18 28° 96° (E) 11:24:01 437.445
DX 1 12 Feb 11:19:15 11:23:18 37° 98° (E) 11:27:19 434.975-435.025
POLYITAN 1 12 Feb 11:21:44 11:25:45 42° 261° (W) 11:29:47 437.675
QB50P2 12 Feb 11:22:16 11:26:17 41° 262° (W) 11:30:17 145.880/145.840
AO-85 12 Feb 11:35:59 11:40:03 21° 318° (NW) 11:44:09 145.980
JAS-2 12 Feb 11:36:51 11:41:46 20° 61° (ENE) 11:46:24 435.910
ESTCUBE 1 12 Feb 11:36:58 11:41:30 66° 101° (E) 11:46:00 437.505/2401.250
Cosmos 2499 12 Feb 11:38:23 11:45:23 26° 293° (WNW) 11:52:29 435.465 / 435.565
50 SAT 12 Feb 11:41:53 11:45:43 89° 95° (E) 11:49:31 437.505
PCSat 12 Feb 11:41:58 11:46:36 28° 310° (NW) 11:51:16 145.827
CUSAT 1 12 Feb 11:42:19 11:46:36 22° 64° (ENE) 11:50:04 437.405
SO-50 12 Feb 11:45:47 11:48:31 15° 38° (NE) 11:51:13 436.795
POPSAT HIP 1 12 Feb 11:52:17 11:55:29 21° 266° (W) 11:58:41 437.405
NANOSAT C BR1 12 Feb 11:55:21 11:58:26 20° 266° (W) 12:01:32 145.865
DUCHIFAT 1 12 Feb 11:55:27 11:58:36 20° 266° (W) 12:01:45 145.980
HUMSAT D 12 Feb 11:59:28 12:01:50 15° 295° (WNW) 12:04:14 437.325/437.525
QB50P1 12 Feb 12:05:32 12:07:59 15° 268° (W) 12:10:26 145.935-145.965
RS-15 12 Feb 12:14:59 12:26:06 69° 307° (NW) 12:37:53 29.354- 29.394
Oscar 19 12 Feb 12:17:21 12:22:07 38° 69° (ENE) 12:26:53 437.125/150
VELOX 1 12 Feb 12:23:38 12:27:51 44° 288° (WNW) 12:32:00 145.980
DANDE 12 Feb 12:37:43 12:44:11 45° 72° (ENE) 12:49:04 436.750
UKube-1 12 Feb 12:38:27 12:42:20 33° 290° (WNW) 12:46:11 .
AISAT 12 Feb 12:41:12 12:44:56 28° 292° (WNW) 12:48:40 437.250
TISAT 1 12 Feb 12:41:17 12:44:58 30° 97° (E) 12:48:39 437.305
SPROUT 12 Feb 12:42:33 12:46:50 88° 291° (WNW) 12:51:05 437.525
BUGSAT 1 12 Feb 12:47:52 12:48:35 10° 269° (W) 12:49:18 437.445
CUBEBUG 1 12 Feb 12:52:55 12:56:29 25° 292° (WNW) 13:00:01 437.445
DX 1 12 Feb 12:56:07 12:59:13 19° 294° (WNW) 13:02:19 434.975-435.025
YUBILEINY 12 Feb 13:02:40 13:09:55 27° 68° (ENE) 13:17:06 435.215
Gurwin Techsat 1B 12 Feb 13:10:31 13:15:32 46° 71° (ENE) 13:20:37 435.225
BEESAT 12 Feb 13:10:44 13:12:24 12° 90° (E) 13:14:05 436.000
Cosmos 2491 12 Feb 13:13:32 13:17:06 13° 75° (ENE) 13:20:38 435.465 / 435.565
ESTCUBE 1 12 Feb 13:15:43 13:17:44 13° 298° (WNW) 13:19:46 437.505/2401.250
AO-7 12 Feb 13:16:23 13:21:53 20° 51° (NE) 13:27:22 29.400- 29.500
JAS-2 12 Feb 13:18:27 13:26:07 85° 256° (WSW) 13:33:05 435.910
CUSAT 1 12 Feb 13:24:16 13:29:05 34° 272° (W) 13:32:51 437.405
SO-50 12 Feb 13:24:55 13:29:46 89° 59° (ENE) 13:34:25 436.795
ITAMSAT 1 12 Feb 13:32:19 13:37:05 38° 69° (ENE) 13:41:54 435.822/435.867
ISS 12 Feb 13:42:51 13:44:12 12° 129° (SE) 13:45:35 145.825
Oscar 19 12 Feb 13:57:18 14:01:31 25° 265° (W) 14:05:45 437.125/150
SWISSCUBE 12 Feb 14:01:03 14:05:40 44° 99° (E) 14:10:15 437.505
TISAT 1 12 Feb 14:17:17 14:20:28 22° 293° (WNW) 14:23:39 437.305
DANDE 12 Feb 14:21:32 14:26:32 24° 278° (W) 14:30:36 436.750
HORYU 2 12 Feb 14:31:04 14:31:46 10° 61° (ENE) 14:32:28 437.375
RS-15 12 Feb 14:32:05 14:41:17 27° 336° (NNW) 14:50:54 29.354- 29.394
ITUPSAT 1 12 Feb 14:39:17 14:44:08 84° 283° (WNW) 14:48:57 437.325
Cosmos 2504 12 Feb 14:44:21 14:51:08 25° 66° (ENE) 14:57:32 435.465 / 435.565
BEESAT 12 Feb 14:45:53 14:50:40 71° 286° (WNW) 14:55:26 436.000
Gurwin Techsat 1B 12 Feb 14:51:40 14:55:42 22° 267° (W) 14:59:45 435.225
YUBILEINY 12 Feb 14:58:39 15:07:22 66° 268° (W) 15:16:01 435.215
Cosmos 2491 12 Feb 15:03:38 15:12:18 76° 94° (E) 15:21:01 435.465 / 435.565
AO-7 12 Feb 15:05:04 15:13:27 84° 70° (ENE) 15:21:51 29.400- 29.500
JAS-2 12 Feb 15:07:51 15:11:45 15° 271° (W) 15:15:32 435.910
ITAMSAT 1 12 Feb 15:12:25 15:16:39 25° 265° (W) 15:20:55 435.822/435.867
STARS 12 Feb 15:15:00 15:17:50 17° 93° (E) 15:20:40 437.465
ISS 12 Feb 15:17:01 15:20:15 69° 324° (NW) 15:23:29 145.825
M-CUBED/EXP-1 PRIME 12 Feb 15:18:38 15:22:11 61° 70° (ENE) 15:25:32 437.505
AUBIESAT-1 12 Feb 15:25:47 15:29:19 60° 70° (ENE) 15:32:40 437.475
KKS-1 12 Feb 15:38:39 15:43:02 59° 101° (E) 15:47:23 437.445
SWISSCUBE 12 Feb 15:39:40 15:43:08 20° 295° (WNW) 15:46:36 437.505
MOZHAYETS 4 12 Feb 15:53:27 15:57:41 34° 97° (E) 16:01:54
BEESAT 3 12 Feb 15:59:50 16:03:19 30° 115° (ESE) 16:06:51 437.485
O/OREOS (USA 219) 12 Feb 16:01:48 16:03:43 12° 52° (NE) 16:05:38 437.305
HORYU 2 12 Feb 16:03:16 16:07:41 79° 257° (WSW) 16:12:07 437.375
BEESAT 2 12 Feb 16:29:07 16:32:53 40° 116° (ESE) 16:36:41 435.950
Cosmos 2504 12 Feb 16:36:50 16:45:19 68° 267° (W) 16:53:09 435.465 / 435.565
CUBESAT XI-V 12 Feb 16:44:25 16:46:02 12° 89° (E) 16:47:39 437.345
AO-85 12 Feb 16:48:10 16:49:56 12° 32° (NNE) 16:51:39 145.980
STARS 12 Feb 16:50:16 16:54:23 41° 289° (WNW) 16:58:29 437.465
RS-15 12 Feb 16:50:54 16:59:34 22° 12° (NNE) 17:08:25 29.354- 29.394
BRITE-PL 12 Feb 16:53:52 16:57:19 17° 63° (ENE) 17:00:40 437.365/2234.400
ISS 12 Feb 16:55:02 16:57:10 16° 343° (NNW) 16:59:19 145.825
YUBILEINY 12 Feb 17:00:42 17:02:17 11° 288° (WNW) 17:03:52 435.215
AO-7 12 Feb 17:01:23 17:07:04 20° 268° (W) 17:12:47 29.400- 29.500
Cosmos 2491 12 Feb 17:03:32 17:10:03 23° 295° (WNW) 17:16:37 435.465 / 435.565
CUTE-I 12 Feb 17:10:50 17:15:46 40° 69° (ENE) 17:20:44 437.470
AIST 2 12 Feb 17:12:38 17:14:02 11° 108° (ESE) 17:15:26 435.215
KKS-1 12 Feb 17:16:55 17:19:07 14° 297° (WNW) 17:21:17 437.445
Cubesat XI-IV 12 Feb 17:25:15 17:30:25 54° 71° (ENE) 17:35:38 437.490
MOZHAYETS 4 12 Feb 17:30:59 17:34:40 24° 293° (WNW) 17:38:21
LilacSat-2 12 Feb 17:37:16 17:40:59 54° 75° (ENE) 17:44:42 437.200
BEESAT 3 12 Feb 17:37:48 17:41:05 24° 311° (NW) 17:44:24 437.485
O/OREOS (USA 219) 12 Feb 17:39:06 17:43:43 78° 249° (WSW) 17:48:17 437.305
GOMX 1 12 Feb 17:43:27 17:47:36 23° 67° (ENE) 17:51:35 467.674
HO-68 12 Feb 18:03:12 18:07:50 19° 55° (NE) 18:12:29 435.675
BEESAT 2 12 Feb 18:07:57 18:10:57 20° 314° (NW) 18:13:58 435.950
CUBESAT XI-V 12 Feb 18:19:12 18:23:54 68° 285° (WNW) 18:28:31 437.345
AO-85 12 Feb 18:26:37 18:31:42 55° 54° (NE) 18:36:20 145.980
GONETS M04 12 Feb 18:28:38 18:35:11 22° 65° (ENE) 18:41:42
BRITE-PL 12 Feb 18:29:31 18:35:12 73° 259° (WSW) 18:40:43 437.365/2234.400
ISS 12 Feb 18:33:31 18:34:40 11° 4° (N) 18:35:50 145.825
Cosmos 2504 12 Feb 18:34:50 18:36:49 11° 288° (WNW) 18:38:46 435.465 / 435.565
STRAND 1 12 Feb 18:36:08 18:40:07 22° 94° (E) 18:44:04 437.568
CUTE 1.7 + AOD 2 12 Feb 18:43:18 18:45:49 16° 65° (ENE) 18:48:20 437.475
SEEDS 12 Feb 18:45:10 18:46:49 12° 63° (ENE) 18:48:29 437.485
PCSat 12 Feb 18:46:16 18:51:10 33° 52° (NE) 18:56:01 145.827
DOVE 4 12 Feb 18:46:18 18:51:08 47° 73° (ENE) 18:55:42 437.250
AIST 2 12 Feb 18:47:50 18:51:58 64° 304° (WNW) 18:56:08 435.215
CUTE-I 12 Feb 18:51:36 18:55:55 25° 265° (W) 19:00:17 437.470
RS-15 12 Feb 19:04:42 19:16:16 47° 44° (NE) 19:27:59 29.354- 29.394
Cubesat XI-IV 12 Feb 19:07:12 19:10:49 18° 268° (W) 19:14:27 437.490
CINEMA 3 12 Feb 19:18:46 19:22:52 33° 71° (ENE) 19:26:48 145.822/145.860
GOMX 1 12 Feb 19:20:17 19:25:24 44° 261° (W) 19:30:19 467.674
CANX-2 12 Feb 19:27:04 19:31:10 53° 74° (ENE) 19:35:18 2200.000
Cosmos 2499 12 Feb 19:36:30 19:43:01 25° 66° (ENE) 19:49:10 435.465 / 435.565
HO-68 12 Feb 19:47:26 19:54:37 88° 254° (WSW) 20:01:52 435.675
ZACube-1 12 Feb 19:48:42 19:50:15 12° 64° (ENE) 19:51:48 437.345
FUNcube-1 12 Feb 19:55:32 19:57:36 14° 65° (ENE) 19:59:40 145.935
COMPASS 1 12 Feb 19:58:03 20:02:07 58° 75° (ENE) 20:06:14 437.405
PRISM 12 Feb 20:08:08 20:12:16 57° 101° (E) 20:16:20 437.425
AO-85 12 Feb 20:08:23 20:11:39 18° 253° (WSW) 20:14:45 145.980
ISS 12 Feb 20:09:23 20:12:02 23° 24° (NNE) 20:14:41 145.825
STRAND 1 12 Feb 20:14:34 20:19:27 43° 290° (WNW) 20:24:18 437.568
CUTE 1.7 + AOD 2 12 Feb 20:17:16 20:21:17 44° 261° (W) 20:25:22 437.475
SEEDS 12 Feb 20:17:54 20:22:01 59° 260° (W) 20:26:11 437.485
Oscar 11 12 Feb 20:21:32 20:25:28 36° 71° (ENE) 20:29:25 145.826/435.025
AAUSAT CUBESAT 2 12 Feb 20:23:36 20:27:43 86° 253° (WSW) 20:31:54 437.432
GONETS M04 12 Feb 20:24:09 20:32:58 79° 266° (W) 20:41:47
DOVE 4 12 Feb 20:25:28 20:28:58 19° 267° (W) 20:32:23 437.250
PCSat 12 Feb 20:29:38 20:34:33 36° 250° (WSW) 20:39:26 145.827
UWE-3 12 Feb 20:35:06 20:39:15 57° 74° (ENE) 20:43:20 435.000/436.395/437.385
CUBEBUG 2 12 Feb 20:40:57 20:45:15 86° 257° (WSW) 20:49:28 437.445
CINEMA 3 12 Feb 20:56:30 21:00:03 22° 265° (W) 21:03:29 145.822/145.860
AIST 1 12 Feb 20:57:30 21:01:18 29° 75° (ENE) 21:05:04
CANX-2 12 Feb 21:05:39 21:07:21 12° 270° (W) 21:09:04 2200.000
DELFI C3 12 Feb 21:12:34 21:16:32 74° 75° (ENE) 21:20:32 145.870
HUMSAT D 12 Feb 21:13:43 21:17:15 29° 70° (ENE) 21:20:49 437.325/437.525
RS-15 12 Feb 21:17:22 21:29:14 61° 247° (WSW) 21:41:11 29.354- 29.394
ZACube-1 12 Feb 21:21:55 21:26:04 59° 260° (W) 21:30:11 437.345
Cosmos 2499 12 Feb 21:28:42 21:36:55 67° 267° (W) 21:44:28 435.465 / 435.565
FUNcube-1 12 Feb 21:29:23 21:33:27 50° 260° (W) 21:37:29 145.935
COMPASS 1 12 Feb 21:37:00 21:38:04 11° 270° (W) 21:39:09 437.405
HO-68 12 Feb 21:39:32 21:43:14 15° 271° (W) 21:46:55 435.675
PRISM 12 Feb 21:45:19 21:47:06 12° 297° (WNW) 21:48:51 437.425
ISS 12 Feb 21:45:29 21:48:40 53° 221° (SW) 21:51:50 145.825
VELOX 1 12 Feb 21:45:51 21:48:22 15° 64° (ENE) 21:50:54 145.980
UNISAT 6 12 Feb 21:57:14 22:00:40 22° 95° (E) 22:04:07 437.425
UKube-1 12 Feb 21:57:34 22:00:28 18° 65° (ENE) 22:03:24 .
Oscar 11 12 Feb 21:58:39 22:01:42 19° 267° (W) 22:04:46 145.826/435.025
AISAT 12 Feb 22:01:59 22:05:30 23° 67° (ENE) 22:09:00 437.250
CUBEBUG 1 12 Feb 22:12:14 22:15:44 23° 67° (ENE) 22:19:13 437.445
DX 1 12 Feb 22:14:17 22:18:09 31° 69° (ENE) 22:22:01 434.975-435.025
UWE-3 12 Feb 22:14:45 22:16:03 11° 269° (W) 22:17:20 435.000/436.395/437.385
50 SAT 12 Feb 22:21:37 22:25:03 37° 72° (ENE) 22:28:31 437.505
GONETS M04 12 Feb 22:24:10 22:28:14 14° 285° (WNW) 22:32:19
PHONESAT 2.4 12 Feb 22:33:09 22:34:17 11° 146° (SE) 22:35:27 2401.200-2431.200
AIST 1 12 Feb 22:35:26 22:38:43 21° 272° (W) 22:41:59
ESTCUBE 1 12 Feb 22:35:44 22:40:10 56° 73° (ENE) 22:44:38 437.505/2401.250
ANTELSAT 12 Feb 22:41:29 22:45:51 68° 102° (ESE) 22:50:17 437.575/2403.000
TIGRISAT 12 Feb 22:47:13 22:51:35 75° 102° (ESE) 22:56:02 435.000
HUMSAT D 12 Feb 22:49:52 22:52:55 20° 266° (W) 22:56:00 437.325/437.525
POLYITAN 1 12 Feb 23:07:19 23:11:02 29° 97° (E) 23:14:43 437.675
QB50P2 12 Feb 23:07:46 23:11:32 31° 97° (E) 23:15:17 145.880/145.840
VELOX 1 12 Feb 23:20:02 23:24:24 53° 259° (W) 23:28:48 145.980
Cosmos 2499 12 Feb 23:27:36 23:28:08 10° 288° (WNW) 23:28:39 435.465 / 435.565
UKube-1 12 Feb 23:32:06 23:36:12 41° 261° (W) 23:40:20 .
TISAT 1 12 Feb 23:32:54 23:36:10 22° 68° (ENE) 23:39:27 437.305
UNISAT 6 12 Feb 23:33:31 23:37:25 32° 289° (WNW) 23:41:21 437.425
SPROUT 12 Feb 23:35:26 23:39:42 65° 75° (ENE) 23:43:57 437.525
RS-15 12 Feb 23:36:00 23:39:01 11° 267° (W) 23:42:03 29.354- 29.394
POPSAT HIP 1 12 Feb 23:36:21 23:40:32 63° 102° (ESE) 23:44:41 437.405
AISAT 12 Feb 23:37:46 23:41:48 33° 263° (W) 23:45:50 437.250
DUCHIFAT 1 12 Feb 23:38:53 23:43:02 63° 101° (E) 23:47:11 145.980
NANOSAT C BR1 12 Feb 23:38:57 23:43:07 67° 101° (E) 23:47:17 145.865
CUBEBUG 1 12 Feb 23:47:52 23:51:50 32° 263° (W) 23:55:49 437.445
QB50P1 12 Feb 23:48:40 23:52:53 90° 46° (NE) 23:57:05 145.935-145.965
DX 1 12 Feb 23:50:53 23:54:20 23° 265° (W) 23:57:50 434.975-435.025
50 SAT 12 Feb 23:57:24 23:59:15 13° 268° (W) 00:01:05 437.505
DANDE 13 Feb 00:05:54 00:08:18 11° 75° (ENE) 00:10:44 436.750
PHONESAT 2.4 13 Feb 00:07:52 00:11:02 46° 161° (SSE) 00:14:12 2401.200-2431.200
ITUPSAT 1 13 Feb 00:11:07 00:12:57 12° 60° (ENE) 00:14:48 437.325
ESTCUBE 1 13 Feb 00:15:05 00:17:19 13° 269° (W) 00:19:34 437.505/2401.250
BEESAT 13 Feb 00:16:38 00:19:07 14° 62° (ENE) 00:21:35 436.000
BEESAT 3 13 Feb 00:18:09 00:20:56 18° 46° (NE) 00:23:42 437.485
ANTELSAT 13 Feb 00:20:30 00:22:01 12° 297° (WNW) 00:23:34 437.575/2403.000
BUGSAT 1 13 Feb 00:26:23 00:30:24 69° 286° (WNW) 00:34:23 437.445
TIGRISAT 13 Feb 00:26:49 00:27:41 11° 298° (WNW) 00:28:34 435.000
Oscar 19 13 Feb 00:31:00 00:33:28 13° 90° (E) 00:35:56 437.125/150
CUSAT 1 13 Feb 00:41:08 00:48:22 39° 89° (E) 00:55:31 437.405
POLYITAN 1 13 Feb 00:43:25 00:46:41 22° 292° (WNW) 00:49:57 437.675
QB50P2 13 Feb 00:43:57 00:47:10 21° 293° (WNW) 00:50:22 145.880/145.840
BEESAT 2 13 Feb 00:48:10 00:51:23 23° 48° (NE) 00:54:35 435.950
SWISSCUBE 13 Feb 01:06:55 01:11:29 48° 72° (ENE) 01:16:05 437.505
TISAT 1 13 Feb 01:07:57 01:11:41 30° 263° (W) 01:15:25 437.305
POPSAT HIP 1 13 Feb 01:14:24 01:15:47 11° 297° (WNW) 01:17:11 437.405
Cosmos 2491 13 Feb 01:14:55 01:22:52 37° 72° (ENE) 01:30:46 435.465 / 435.565
SPROUT 13 Feb 01:15:24 01:16:05 10° 270° (W) 01:16:46 437.525
DUCHIFAT 1 13 Feb 01:16:51 01:18:12 11° 297° (WNW) 01:19:34 145.980
NANOSAT C BR1 13 Feb 01:17:12 01:18:18 11° 298° (WNW) 01:19:25 145.865
Gurwin Techsat 1B 13 Feb 01:28:05 01:31:47 19° 92° (E) 01:35:27 435.225
DANDE 13 Feb 01:41:48 01:49:34 62° 93° (E) 01:57:54 436.750
PHONESAT 2.4 13 Feb 01:44:55 01:48:13 85° 357° (N) 01:51:30 2401.200-2431.200
ITUPSAT 1 13 Feb 01:45:21 01:50:07 78° 257° (WSW) 01:54:57 437.325
ITAMSAT 1 13 Feb 01:47:09 01:49:47 14° 90° (E) 01:52:26 435.822/435.867
BEESAT 13 Feb 01:51:37 01:56:20 65° 258° (WSW) 02:01:06 436.000
BEESAT 3 13 Feb 01:55:08 01:58:55 44° 243° (WSW) 02:02:39 437.485
YUBILEINY 13 Feb 02:03:26 02:10:47 31° 83° (E) 02:18:10 435.215
Oscar 19 13 Feb 02:08:10 02:13:16 69° 286° (WNW) 02:18:20 437.125/150
STARS 13 Feb 02:11:50 02:14:22 15° 64° (ENE) 02:16:55 437.465
JAS-2 13 Feb 02:14:40 02:20:14 89° 288° (WNW) 02:25:26 435.910
CUSAT 1 13 Feb 02:22:44 02:30:29 49° 285° (WNW) 02:38:04 437.405
BEESAT 2 13 Feb 02:25:44 02:29:20 32° 245° (WSW) 02:32:53 435.950
KKS-1 13 Feb 02:36:01 02:40:19 50° 73° (ENE) 02:44:38 437.445
SWISSCUBE 13 Feb 02:46:25 02:49:32 17° 267° (W) 02:52:41 437.505
MOZHAYETS 4 13 Feb 02:54:56 02:58:55 30° 69° (ENE) 03:02:56
Gurwin Techsat 1B 13 Feb 03:06:51 03:12:02 53° 288° (WNW) 03:17:11 435.225
AO-7 13 Feb 03:08:08 03:15:02 28° 95° (E) 03:21:52 29.400- 29.500
AIST 2 13 Feb 03:09:43 03:13:51 68° 56° (ENE) 03:17:56 435.215
Cosmos 2491 13 Feb 03:11:35 03:19:50 48° 271° (W) 03:28:07 435.465 / 435.565
PHONESAT 2.4 13 Feb 03:22:13 03:25:29 67° 193° (SSW) 03:28:43 2401.200-2431.200
Cosmos 2504 13 Feb 03:22:41 03:28:42 21° 79° (ENE) 03:34:48 435.465 / 435.565
ITAMSAT 1 13 Feb 03:24:31 03:29:44 69° 286° (WNW) 03:34:56 435.822/435.867
DANDE 13 Feb 03:25:58 03:33:00 32° 292° (WNW) 03:40:22 436.750
SO-50 13 Feb 03:38:33 03:42:55 34° 114° (ESE) 03:47:21 436.795
STARS 13 Feb 03:46:03 03:50:20 50° 260° (W) 03:54:37 437.465
CUBESAT XI-V 13 Feb 03:47:46 03:49:32 12° 61° (ENE) 03:51:18 437.345
HORYU 2 13 Feb 03:55:30 03:58:48 20° 94° (E) 04:02:06 437.375
YUBILEINY 13 Feb 03:58:28 04:07:02 56° 282° (WNW) 04:15:44 435.215
JAS-2 13 Feb 04:02:39 04:04:20 11° 304° (NW) 04:06:00 435.910
KKS-1 13 Feb 04:14:41 04:17:10 15° 268° (W) 04:19:39 437.445
MOZHAYETS 4 13 Feb 04:32:18 04:36:04 25° 265° (W) 04:39:52
M-CUBED/EXP-1 PRIME 13 Feb 04:32:32 04:35:54 47° 105° (ESE) 04:39:29 437.505
AUBIESAT-1 13 Feb 04:39:06 04:42:31 47° 105° (ESE) 04:46:09 437.475
AIST 2 13 Feb 04:51:04 04:51:45 10° 253° (WSW) 04:52:26 435.215
PHONESAT 2.4 13 Feb 04:59:57 05:02:24 20° 209° (SSW) 05:04:49 2401.200-2431.200
AO-7 13 Feb 05:00:05 05:08:16 63° 293° (WNW) 05:16:24 29.400- 29.500
Cosmos 2504 13 Feb 05:12:18 05:20:57 81° 278° (W) 05:29:56 435.465 / 435.565
SO-50 13 Feb 05:18:58 05:23:23 32° 311° (NW) 05:27:52 436.795
CUBESAT XI-V 13 Feb 05:21:34 05:26:15 76° 258° (WSW) 05:31:00 437.345
CUTE-I 13 Feb 05:29:25 05:32:46 17° 91° (E) 05:36:06 437.470
HORYU 2 13 Feb 05:31:23 05:35:28 36° 290° (WNW) 05:39:33 437.375
Cubesat XI-IV 13 Feb 05:43:38 05:47:50 23° 94° (E) 05:52:01 437.490
STRAND 1 13 Feb 05:51:24 05:55:50 31° 67° (ENE) 06:00:17 437.568
M-CUBED/EXP-1 PRIME 13 Feb 06:09:12 06:10:14 11° 299° (WNW) 06:11:17 437.505
O/OREOS (USA 219) 13 Feb 06:14:28 06:16:21 12° 98° (E) 06:18:14 437.305
AUBIESAT-1 13 Feb 06:15:33 06:16:48 12° 299° (WNW) 06:18:05 437.475
